This is the latest recevied weather packets stored in our database for station/object OK1HOL-13. If no packets are shown the sender has not sent any weather packets the latest 10 day(s).
| Time | Temp. | Humidity | Pressure | Rain* | Wind** | Luminosity | Snow |
|---|---|---|---|---|---|---|---|
| 1778118366 | 13.33° C | 89% | 1008 hPa | - | - | 0 W/m² | - |
| 1778117766 | 13.33° C | 89% | 1008.1 hPa | - | - | 0 W/m² | - |
| 1778117166 | 13.33° C | 88% | 1008.1 hPa | - | - | 0 W/m² | - |
| 1778116569 | 13.89° C | 86% | 1007.7 hPa | - | - | 0 W/m² | - |
| 1778115965 | 13.89° C | 87% | 1007.6 hPa | - | - | 0 W/m² | - |
| 1778115364 | 13.89° C | 87% | 1007.6 hPa | - | - | 0 W/m² | - |
| 1778114764 | 13.89° C | 87% | 1007.6 hPa | - | - | 0 W/m² | - |
| 1778114164 | 13.89° C | 88% | 1007.5 hPa | - | - | 0 W/m² | - |
| 1778113564 | 13.89° C | 88% | 1007.4 hPa | - | - | 0 W/m² | - |
| 1778112964 | 13.89° C | 89% | 1007.4 hPa | - | - | 0 W/m² | - |
| 1778112364 | 14.44° C | 89% | 1007.2 hPa | - | - | 0 W/m² | - |
| 1778111764 | 14.44° C | 88% | 1006.9 hPa | - | - | 0 W/m² | - |
| 1778111165 | 14.44° C | 86% | 1007 hPa | - | - | 0 W/m² | - |
| 1778110565 | 14.44° C | 86% | 1007 hPa | - | - | 0 W/m² | - |
| 1778109964 | 14.44° C | 88% | 1007 hPa | - | - | 0 W/m² | - |
| 1778109364 | 14.44° C | 87% | 1007 hPa | - | - | 0 W/m² | - |
| 1778108764 | 14.44° C | 88% | 1006.9 hPa | - | - | 0 W/m² | - |
| 1778108164 | 14.44° C | 88% | 1007 hPa | - | - | 0 W/m² | - |
| 1778107564 | 14.44° C | 89% | 1007 hPa | - | - | 0 W/m² | - |
| 1778106964 | 14.44° C | 90% | 1006.9 hPa | - | - | 0 W/m² | - |
| 1778106364 | 14.44° C | 88% | 1006.9 hPa | - | - | 0 W/m² | - |
| 1778105764 | 14.44° C | 91% | 1006.8 hPa | - | - | 0 W/m² | - |
| 1778105164 | 14.44° C | 91% | 1006.7 hPa | - | - | 0 W/m² | - |
| 1778104564 | 14.44° C | 91% | 1006.7 hPa | - | - | 0 W/m² | - |
| 1778103964 | 14.44° C | 91% | 1006.7 hPa | - | - | 0 W/m² | - |
* Rain since midnight (hover to see other rain measurements)
** Current wind speed in m/s (hover to see current wind gust speed)